Time,TemperatureF,DewpointF,PressureIn,WindDirection,WindDirectionDegrees,WindSpeedMPH,WindSpeedGustMPH,Humidity,HourlyPrecipIn,Conditions,Clouds,dailyrainin,SoftwareType,DateUTC
2013-01-19 00:10:00,20.3,0.0,30.30,SW,236,0.0,0.0,0,0.00,,,0.00,VWS V14.01,2013-01-19 05:10:00,
2013-01-19 00:20:00,20.8,0.0,30.29,SW,236,0.0,0.0,0,0.00,,,0.00,VWS V14.01,2013-01-19 05:20:00,
2013-01-19 00:30:00,21.0,0.0,30.28,SW,236,0.0,0.0,0,0.00,,,0.00,VWS V14.01,2013-01-19 05:30:00,
2013-01-19 00:40:00,21.1,0.0,30.28,SW,236,0.0,0.0,0,0.00,,,0.00,VWS V14.01,2013-01-19 05:40:00,
2013-01-19 00:50:00,21.4,0.0,30.27,SW,236,0.0,0.0,0,0.00,,,0.00,VWS V14.01,2013-01-19 05:50:00,
2013-01-19 01:00:00,21.3,0.0,30.27,SW,236,0.0,1.0,0,0.00,,,0.00,VWS V14.01,2013-01-19 06:00:00,
2013-01-19 01:10:00,21.6,0.0,30.27,WSW,239,0.0,2.0,0,0.00,,,0.00,VWS V14.01,2013-01-19 06:10:00,
2013-01-19 01:20:00,22.7,0.0,30.27,WNW,289,0.0,4.0,0,0.00,,,0.00,VWS V14.01,2013-01-19 06:20:00,
2013-01-19 01:30:00,24.7,0.0,30.27,WSW,240,0.0,3.0,0,0.00,,,0.00,VWS V14.01,2013-01-19 06:30:00,
2013-01-19 01:40:00,26.3,0.0,30.27,West,263,0.0,4.0,0,0.00,,,0.00,VWS V14.01,2013-01-19 06:40:00,
2013-01-19 01:50:00,27.6,0.0,30.26,ENE,71,0.0,3.0,0,0.00,,,0.00,VWS V14.01,2013-01-19 06:50:00,
2013-01-19 02:00:00,29.0,0.0,30.26,SW,236,0.0,9.0,0,0.00,,,0.00,VWS V14.01,2013-01-19 07:00:00,
2013-01-19 02:10:00,29.8,0.0,30.26,WSW,241,0.0,7.0,0,0.00,,,0.00,VWS V14.01,2013-01-19 07:10:00,
2013-01-19 02:20:00,30.4,0.0,30.26,SW,229,1.0,5.0,0,0.00,,,0.00,VWS V14.01,2013-01-19 07:20:00,
2013-01-19 02:30:00,31.0,0.0,30.25,SW,217,2.0,6.0,0,0.00,,,0.00,VWS V14.01,2013-01-19 07:30:00,
2013-01-19 02:40:00,31.3,0.0,30.25,ENE,74,1.0,5.0,0,0.00,,,0.00,VWS V14.01,2013-01-19 07:40:00,
2013-01-19 02:50:00,31.5,0.0,30.25,North,355,2.0,5.0,0,0.00,,,0.00,VWS V14.01,2013-01-19 07:50:00,
2013-01-19 03:00:00,32.1,0.0,30.24,NNW,329,0.0,7.0,0,0.00,,,0.00,VWS V14.01,2013-01-19 08:00:00,
2013-01-19 03:10:00,32.4,0.0,30.24,WSW,255,1.0,6.0,0,0.00,,,0.00,VWS V14.01,2013-01-19 08:10:00,
2013-01-19 03:20:00,32.5,0.0,30.24,NW,315,0.0,5.0,0,0.00,,,0.00,VWS V14.01,2013-01-19 08:20:00,
2013-01-19 03:30:00,32.7,0.0,30.23,West,260,1.0,5.0,0,0.00,,,0.00,VWS V14.01,2013-01-19 08:30:00,
2013-01-19 03:40:00,32.5,0.0,30.23,SW,218,1.0,5.0,0,0.00,,,0.00,VWS V14.01,2013-01-19 08:40:00,
2013-01-19 03:50:00,32.7,0.0,30.22,West,269,0.0,5.0,0,0.00,,,0.00,VWS V14.01,2013-01-19 08:50:00,
2013-01-19 04:00:00,32.8,0.0,30.21,West,273,3.0,5.0,0,0.00,,,0.00,VWS V14.01,2013-01-19 09:00:00,
2013-01-19 04:10:00,32.9,0.0,30.21,WSW,238,0.0,7.0,0,0.00,,,0.00,VWS V14.01,2013-01-19 09:10:00,
2013-01-19 04:20:00,33.1,0.0,30.21,West,271,0.0,7.0,0,0.00,,,0.00,VWS V14.01,2013-01-19 09:20:00,
2013-01-19 04:30:00,33.2,0.0,30.20,North,5,0.0,5.0,0,0.00,,,0.00,VWS V14.01,2013-01-19 09:30:00,
2013-01-19 04:40:00,33.2,0.0,30.20,NNE,29,1.0,6.0,0,0.00,,,0.00,VWS V14.01,2013-01-19 09:40:00,
2013-01-19 04:50:00,33.4,0.0,30.20,SSE,157,2.0,5.0,0,0.00,,,0.00,VWS V14.01,2013-01-19 09:50:00,
2013-01-19 05:00:00,33.7,0.0,30.20,NNE,30,1.0,3.0,0,0.00,,,0.00,VWS V14.01,2013-01-19 10:00:00,
2013-01-19 05:10:00,33.8,0.0,30.20,West,263,0.0,4.0,0,0.00,,,0.00,VWS V14.01,2013-01-19 10:10:00,
2013-01-19 05:20:00,33.8,0.0,30.20,South,172,1.0,4.0,0,0.00,,,0.00,VWS V14.01,2013-01-19 10:20:00,
2013-01-19 05:30:00,34.1,0.0,30.19,NE,37,2.0,4.0,0,0.00,,,0.00,VWS V14.01,2013-01-19 10:30:00,
2013-01-19 05:40:00,34.7,0.0,30.19,WNW,292,2.0,9.0,0,0.00,,,0.00,VWS V14.01,2013-01-19 10:40:00,
2013-01-19 05:50:00,35.0,0.0,30.19,ESE,119,1.0,6.0,0,0.00,,,0.00,VWS V14.01,2013-01-19 10:50:00,
2013-01-19 06:00:00,35.2,0.0,30.19,WSW,253,2.0,5.0,0,0.00,,,0.00,VWS V14.01,2013-01-19 11:00:00,
2013-01-19 06:10:00,35.2,0.0,30.19,WNW,302,1.0,8.0,0,0.00,,,0.00,VWS V14.01,2013-01-19 11:10:00,
2013-01-19 07:50:00,37.5,0.0,30.16,NNE,24,3.0,9.0,0,0.00,,,0.00,VWS V14.01,2013-01-19 12:50:00,
2013-01-19 08:00:00,37.8,0.0,30.16,SE,136,1.0,9.0,0,0.00,,,0.00,VWS V14.01,2013-01-19 13:00:00,
2013-01-19 08:10:00,38.0,0.0,30.16,SW,234,5.0,6.0,0,0.00,,,0.00,VWS V14.01,2013-01-19 13:10:00,
2013-01-19 08:20:00,38.5,0.0,30.17,NNW,333,1.0,8.0,0,0.00,,,0.00,VWS V14.01,2013-01-19 13:20:00,
2013-01-19 08:30:00,38.8,0.0,30.16,North,360,3.0,7.0,0,0.00,,,0.00,VWS V14.01,2013-01-19 13:30:00,
2013-01-19 08:40:00,39.3,0.0,30.16,NE,44,9.0,10.0,0,0.00,,,0.00,VWS V14.01,2013-01-19 13:40:00,
2013-01-19 08:50:00,39.6,0.0,30.16,ENE,64,2.0,9.0,0,0.00,,,0.00,VWS V14.01,2013-01-19 13:50:00,
2013-01-19 09:00:00,40.1,0.0,30.16,SW,218,1.0,6.0,0,0.00,,,0.00,VWS V14.01,2013-01-19 14:00:00,
2013-01-19 09:10:00,40.3,0.0,30.16,WSW,251,2.0,11.0,0,0.00,,,0.00,VWS V14.01,2013-01-19 14:10:00,
2013-01-19 09:20:00,40.8,0.0,30.16,West,267,1.0,9.0,0,0.00,,,0.00,VWS V14.01,2013-01-19 14:20:00,
2013-01-19 09:30:00,41.1,0.0,30.15,West,271,2.0,11.0,0,0.00,,,0.00,VWS V14.01,2013-01-19 14:30:00,
2013-01-19 09:40:00,41.3,0.0,30.15,South,187,2.0,13.0,0,0.00,,,0.00,VWS V14.01,2013-01-19 14:40:00,
2013-01-19 09:50:00,41.5,0.0,30.15,NW,325,3.0,10.0,0,0.00,,,0.00,VWS V14.01,2013-01-19 14:50:00,
2013-01-19 10:00:00,41.6,0.0,30.14,NNE,30,3.0,11.0,0,0.00,,,0.00,VWS V14.01,2013-01-19 15:00:00,
2013-01-19 10:10:00,41.9,0.0,30.14,NNW,344,4.0,9.0,0,0.00,,,0.00,VWS V14.01,2013-01-19 15:10:00,
2013-01-19 10:20:00,42.3,0.0,30.13,WNW,294,1.0,9.0,0,0.00,,,0.00,VWS V14.01,2013-01-19 15:20:00,
2013-01-19 10:30:00,42.6,0.0,30.12,WSW,243,3.0,11.0,0,0.00,,,0.00,VWS V14.01,2013-01-19 15:30:00,
2013-01-19 10:40:00,42.8,0.0,30.12,WNW,285,4.0,11.0,0,0.00,,,0.00,VWS V14.01,2013-01-19 15:40:00,
2013-01-19 10:50:00,42.9,0.0,30.11,NW,309,1.0,10.0,0,0.00,,,0.00,VWS V14.01,2013-01-19 15:50:00,
2013-01-19 11:00:00,43.1,0.0,30.10,WSW,250,4.0,13.0,0,0.00,,,0.00,VWS V14.01,2013-01-19 16:00:00,
2013-01-19 11:10:00,43.5,0.0,30.10,SSE,167,4.0,12.0,0,0.00,,,0.00,VWS V14.01,2013-01-19 16:10:00,
2013-01-19 11:20:00,43.5,0.0,30.09,NW,308,0.0,10.0,0,0.00,,,0.00,VWS V14.01,2013-01-19 16:20:00,
2013-01-19 11:30:00,44.1,0.0,30.08,NW,321,2.0,14.0,0,0.00,,,0.00,VWS V14.01,2013-01-19 16:30:00,
2013-01-19 11:40:00,44.2,0.0,30.08,WNW,285,4.0,15.0,0,0.01,,,0.01,VWS V14.01,2013-01-19 16:40:00,
2013-01-19 11:50:00,44.1,0.0,30.07,WNW,291,2.0,12.0,0,0.01,,,0.01,VWS V14.01,2013-01-19 16:50:00,
2013-01-19 12:00:00,43.9,0.0,30.06,WNW,291,9.0,13.0,0,0.01,,,0.01,VWS V14.01,2013-01-19 17:00:00,
2013-01-19 12:10:00,44.1,0.0,30.06,NW,304,1.0,15.0,0,0.01,,,0.01,VWS V14.01,2013-01-19 17:10:00,
2013-01-19 12:20:00,44.1,0.0,30.04,North,9,3.0,12.0,0,0.01,,,0.01,VWS V14.01,2013-01-19 17:20:00,
2013-01-19 12:30:00,44.1,0.0,30.03,NW,314,3.0,12.0,0,0.01,,,0.01,VWS V14.01,2013-01-19 17:30:00,
2013-01-19 12:40:00,44.1,0.0,30.03,ENE,62,3.0,14.0,0,0.01,,,0.01,VWS V14.01,2013-01-19 17:40:00,
2013-01-19 12:50:00,44.2,0.0,30.02,NNW,327,2.0,11.0,0,0.00,,,0.01,VWS V14.01,2013-01-19 17:50:00,
2013-01-19 13:00:00,44.5,0.0,30.02,West,263,2.0,9.0,0,0.00,,,0.01,VWS V14.01,2013-01-19 18:00:00,
2013-01-19 13:10:00,44.5,0.0,30.02,West,281,11.0,12.0,0,0.00,,,0.01,VWS V14.01,2013-01-19 18:10:00,
2013-01-19 13:20:00,44.6,0.0,30.01,NE,51,1.0,13.0,0,0.00,,,0.01,VWS V14.01,2013-01-19 18:20:00,
2013-01-19 13:30:00,44.9,0.0,29.99,WSW,240,3.0,11.0,0,0.00,,,0.01,VWS V14.01,2013-01-19 18:30:00,
2013-01-19 13:40:00,45.1,0.0,29.99,WSW,252,2.0,14.0,0,0.00,,,0.01,VWS V14.01,2013-01-19 18:40:00,
2013-01-19 13:50:00,45.2,0.0,29.99,SSW,208,2.0,9.0,0,0.00,,,0.01,VWS V14.01,2013-01-19 18:50:00,
2013-01-19 14:10:00,45.2,0.0,29.98,West,271,2.0,13.0,0,0.00,,,0.01,VWS V14.01,2013-01-19 19:10:00,
2013-01-19 14:20:00,45.2,0.0,29.97,West,261,2.0,9.0,0,0.00,,,0.01,VWS V14.01,2013-01-19 19:20:00,
2013-01-19 14:30:00,45.2,0.0,29.97,WNW,290,2.0,9.0,0,0.00,,,0.01,VWS V14.01,2013-01-19 19:30:00,
2013-01-19 14:40:00,45.2,0.0,29.97,West,265,2.0,9.0,0,0.00,,,0.01,VWS V14.01,2013-01-19 19:40:00,
2013-01-19 14:50:00,45.4,0.0,29.97,WNW,296,6.0,13.0,0,0.00,,,0.01,VWS V14.01,2013-01-19 19:50:00,
2013-01-19 15:00:00,45.5,0.0,29.96,ESE,112,2.0,8.0,0,0.00,,,0.01,VWS V14.01,2013-01-19 20:00:00,
2013-01-19 15:10:00,45.4,0.0,29.96,West,260,4.0,10.0,0,0.00,,,0.01,VWS V14.01,2013-01-19 20:10:00,
2013-01-19 15:20:00,45.2,0.0,29.96,North,355,4.0,11.0,0,0.00,,,0.01,VWS V14.01,2013-01-19 20:20:00,
2013-01-19 15:30:00,45.5,0.0,29.95,NNW,338,3.0,10.0,0,0.00,,,0.01,VWS V14.01,2013-01-19 20:30:00,
2013-01-19 15:40:00,45.5,0.0,29.95,NE,42,1.0,12.0,0,0.00,,,0.01,VWS V14.01,2013-01-19 20:40:00,
2013-01-19 15:50:00,45.4,0.0,29.95,WNW,302,3.0,11.0,0,0.00,,,0.01,VWS V14.01,2013-01-19 20:50:00,
2013-01-19 16:00:00,45.2,0.0,29.95,NNE,26,2.0,11.0,0,0.00,,,0.01,VWS V14.01,2013-01-19 21:00:00,
2013-01-19 16:20:00,44.8,0.0,29.94,NNE,20,0.0,5.0,0,0.00,,,0.01,VWS V14.01,2013-01-19 21:20:00,
2013-01-19 16:30:00,44.3,0.0,29.94,SW,232,4.0,7.0,0,0.00,,,0.01,VWS V14.01,2013-01-19 21:30:00,
2013-01-19 16:40:00,43.8,0.0,29.94,WNW,285,1.0,6.0,0,0.00,,,0.01,VWS V14.01,2013-01-19 21:40:00,
2013-01-19 16:50:00,43.3,0.0,29.93,West,273,0.0,5.0,0,0.00,,,0.01,VWS V14.01,2013-01-19 21:50:00,
2013-01-19 17:10:00,42.6,0.0,29.93,West,274,1.0,5.0,0,0.00,,,0.01,VWS V14.01,2013-01-19 22:10:00,
2013-01-19 17:40:00,42.3,0.0,29.93,WSW,249,1.0,3.0,0,0.00,,,0.01,VWS V14.01,2013-01-19 22:40:00,
2013-01-19 18:00:00,42.1,0.0,29.93,SW,232,0.0,5.0,0,0.00,,,0.01,VWS V14.01,2013-01-19 23:00:00,
2013-01-19 18:10:00,41.9,0.0,29.93,West,264,0.0,4.0,0,0.00,,,0.01,VWS V14.01,2013-01-19 23:10:00,
2013-01-19 18:30:00,42.1,0.0,29.92,WSW,242,0.0,5.0,0,0.00,,,0.01,VWS V14.01,2013-01-19 23:30:00,
2013-01-19 18:40:00,42.1,0.0,29.92,WNW,301,1.0,4.0,0,0.00,,,0.01,VWS V14.01,2013-01-19 23:40:00,
2013-01-19 18:50:00,42.1,0.0,29.92,SW,236,0.0,6.0,0,0.00,,,0.01,VWS V14.01,2013-01-19 23:50:00,
2013-01-19 19:00:00,42.1,0.0,29.92,WSW,256,0.0,5.0,0,0.00,,,0.01,VWS V14.01,2013-01-20 00:00:00,
2013-01-19 19:10:00,41.9,0.0,29.92,SW,232,0.0,4.0,0,0.00,,,0.01,VWS V14.01,2013-01-20 00:10:00,
2013-01-19 19:20:00,42.2,0.0,29.92,NE,49,1.0,4.0,0,0.00,,,0.01,VWS V14.01,2013-01-20 00:20:00,
2013-01-19 19:30:00,42.2,0.0,29.92,NNE,24,0.0,5.0,0,0.00,,,0.01,VWS V14.01,2013-01-20 00:30:00,
2013-01-19 19:40:00,42.1,0.0,29.92,NNW,338,0.0,5.0,0,0.00,,,0.01,VWS V14.01,2013-01-20 00:40:00,
2013-01-19 19:50:00,41.9,0.0,29.92,WSW,243,1.0,10.0,0,0.00,,,0.01,VWS V14.01,2013-01-20 00:50:00,
2013-01-19 20:00:00,41.8,0.0,29.91,West,262,1.0,3.0,0,0.00,,,0.01,VWS V14.01,2013-01-20 01:00:00,
2013-01-19 20:10:00,42.1,0.0,29.91,SW,228,0.0,6.0,0,0.00,,,0.01,VWS V14.01,2013-01-20 01:10:00,
2013-01-19 20:20:00,41.9,0.0,29.90,West,267,1.0,5.0,0,0.00,,,0.01,VWS V14.01,2013-01-20 01:20:00,
2013-01-19 20:30:00,42.1,0.0,29.89,SSW,209,3.0,5.0,0,0.00,,,0.01,VWS V14.01,2013-01-20 01:30:00,
2013-01-19 20:40:00,42.2,0.0,29.89,WSW,258,1.0,6.0,0,0.00,,,0.01,VWS V14.01,2013-01-20 01:40:00,
2013-01-19 21:00:00,42.3,0.0,29.89,SSE,151,1.0,6.0,0,0.00,,,0.01,VWS V14.01,2013-01-20 02:00:00,
2013-01-19 21:10:00,42.2,0.0,29.89,NE,51,3.0,6.0,0,0.00,,,0.01,VWS V14.01,2013-01-20 02:10:00,
2013-01-19 21:20:00,42.2,0.0,29.89,West,261,3.0,7.0,0,0.00,,,0.01,VWS V14.01,2013-01-20 02:20:00,
2013-01-19 21:30:00,42.2,0.0,29.88,NNW,345,1.0,5.0,0,0.00,,,0.01,VWS V14.01,2013-01-20 02:30:00,
2013-01-19 21:40:00,42.2,0.0,29.88,West,280,1.0,4.0,0,0.00,,,0.01,VWS V14.01,2013-01-20 02:40:00,
2013-01-19 21:50:00,42.3,0.0,29.87,WNW,300,1.0,5.0,0,0.00,,,0.01,VWS V14.01,2013-01-20 02:50:00,
2013-01-19 22:10:00,42.6,0.0,29.86,NE,51,1.0,9.0,0,0.00,,,0.01,VWS V14.01,2013-01-20 03:10:00,
2013-01-19 22:20:00,42.6,0.0,29.86,NW,317,0.0,6.0,0,0.00,,,0.01,VWS V14.01,2013-01-20 03:20:00,
2013-01-19 22:30:00,42.8,0.0,29.85,SW,216,4.0,7.0,0,0.00,,,0.01,VWS V14.01,2013-01-20 03:30:00,
2013-01-19 22:40:00,42.9,0.0,29.85,WNW,297,5.0,7.0,0,0.00,,,0.01,VWS V14.01,2013-01-20 03:40:00,
2013-01-19 22:50:00,43.1,0.0,29.84,NE,48,1.0,6.0,0,0.00,,,0.01,VWS V14.01,2013-01-20 03:50:00,
2013-01-19 23:00:00,42.9,0.0,29.84,NNE,19,4.0,7.0,0,0.00,,,0.01,VWS V14.01,2013-01-20 04:00:00,
2013-01-19 23:10:00,43.2,0.0,29.84,West,259,5.0,10.0,0,0.00,,,0.01,VWS V14.01,2013-01-20 04:10:00,
2013-01-19 23:20:00,43.3,0.0,29.83,West,277,3.0,9.0,0,0.00,,,0.01,VWS V14.01,2013-01-20 04:20:00,
2013-01-19 23:30:00,43.6,0.0,29.83,SW,234,1.0,11.0,0,0.00,,,0.01,VWS V14.01,2013-01-20 04:30:00,
2013-01-19 23:40:00,43.8,0.0,29.83,ESE,115,2.0,9.0,0,0.00,,,0.01,VWS V14.01,2013-01-20 04:40:00,
2013-01-19 23:50:00,43.9,0.0,29.82,WNW,302,2.0,9.0,0,0.00,,,0.01,VWS V14.01,2013-01-20 04:50:00,